| time (UTC) | temp F | wind direction | speed knots | gust knots | rain 1hr in | rain 24hr in | rain mn in | humidity % | barometer mb |
| 20260504081604 | 60 | 102 | 5.2 | 8.7 | 0.00 | 0.00 | 0.00 | 54 | 1020.0 |
| 20260504081104 | 59 | 110 | 7.0 | 8.7 | 0.00 | 0.00 | 0.00 | 54 | 1020.0 |
| 20260504080604 | 62 | 81 | 4.3 | 6.1 | 0.00 | 0.00 | 0.00 | 52 | 1020.0 |
| 20260504080105 | 60 | 53 | 7.0 | 8.7 | 0.00 | 0.00 | 0.00 | 56 | 1020.0 |
| 20260504060104 | 60 | 281 | 4.3 | 5.2 | 0.00 | 0.01 | 0.00 | 59 | 1019.2 |
| 20260504045604 | 54 | 289 | 2.6 | 5.2 | 0.00 | 0.12 | 0.00 | 78 | 1019.0 |
| 20260504045105 | 53 | 298 | 1.7 | 4.3 | 0.00 | 0.15 | 0.00 | 81 | 1019.0 |
| 20260504044604 | 52 | 292 | 3.5 | 5.2 | 0.00 | 0.17 | 0.00 | 82 | 1018.9 |
| 20260504044104 | 52 | 225 | 2.6 | 5.2 | 0.00 | 0.20 | 0.00 | 84 | 1018.9 |
| 20260504043605 | 51 | 261 | 2.6 | 5.2 | 0.00 | 0.22 | 0.00 | 85 | 1018.9 |
| 20260504043104 | 50 | 248 | 4.3 | 5.2 | 0.00 | 0.25 | 0.00 | 87 | 1018.9 |
| 20260504042604 | 50 | 252 | 3.5 | 6.1 | 0.00 | 0.29 | 0.00 | 88 | 1018.9 |
| 20260504042104 | 49 | 257 | 4.3 | 5.2 | 0.00 | 0.33 | 0.00 | 88 | 1018.9 |
| 20260504041604 | 49 | 270 | 4.3 | 5.2 | 0.00 | 0.36 | 0.00 | 88 | 1018.9 |
| 20260504041105 | 49 | 260 | 2.6 | 5.2 | 0.00 | 0.38 | 0.00 | 88 | 1018.7 |
| 20260504040609 | 49 | 263 | 2.6 | 5.2 | 0.00 | 0.39 | 0.00 | 88 | 1018.7 |
| 20260504040106 | 48 | 267 | 1.7 | 4.3 | 0.00 | 0.39 | 0.00 | 87 | 1018.6 |
| 20260504034607 | 47 | 118 | 2.6 | 5.2 | 0.00 | 0.39 | 0.00 | 92 | 1018.6 |
| 20260504034105 | 47 | 36 | 4.3 | 5.2 | 0.00 | 0.39 | 0.00 | 93 | 1018.6 |
| 20260504033604 | 47 | 157 | 0.9 | 5.2 | 0.00 | 0.39 | 0.00 | 93 | 1018.5 |
| 20260504033104 | 46 | 50 | 3.5 | 5.2 | 0.00 | 0.39 | 0.00 | 94 | 1018.5 |
| 20260504032611 | 46 | 93 | 2.6 | 4.3 | 0.00 | 0.39 | 0.00 | 94 | 1018.5 |
| 20260504032104 | 46 | 336 | 1.7 | 4.3 | 0.00 | 0.39 | 0.00 | 94 | 1018.5 |
| 20260504031604 | 46 | 220 | 1.7 | 5.2 | 0.00 | 0.39 | 0.00 | 93 | 1018.5 |
| 20260504031104 | 46 | 13 | 3.5 | 5.2 | 0.00 | 0.39 | 0.00 | 93 | 1018.7 |
| 20260504030106 | 46 | 332 | 2.6 | 5.2 | 0.00 | 0.39 | 0.00 | 92 | 1018.6 |
| 20260504025604 | 46 | 268 | 3.5 | 6.1 | 0.00 | 0.39 | 0.00 | 92 | 1018.6 |
| 20260504025106 | 46 | 304 | 2.6 | 5.2 | 0.00 | 0.39 | 0.00 | 92 | 1018.6 |
| 20260504024604 | 46 | 335 | 2.6 | 6.1 | 0.00 | 0.39 | 0.00 | 91 | 1018.6 |
| 20260504024104 | 46 | 273 | 2.6 | 5.2 | 0.00 | 0.39 | 0.00 | 91 | 1018.6 |
| 20260504023605 | 46 | 149 | 2.6 | 5.2 | 0.00 | 0.39 | 0.00 | 91 | 1018.6 |
| 20260504023104 | 47 | 348 | 1.7 | 5.2 | 0.00 | 0.39 | 0.00 | 91 | 1018.6 |
| 20260504022604 | 47 | 328 | 4.3 | 5.2 | 0.00 | 0.39 | 0.00 | 91 | 1018.6 |
| 20260504022104 | 46 | 291 | 4.3 | 7.0 | 0.00 | 0.39 | 0.00 | 92 | 1018.6 |
| 20260504021604 | 46 | 3 | 5.2 | 7.8 | 0.00 | 0.39 | 0.00 | 93 | 1018.6 |
| 20260504021104 | 45 | 60 | 2.6 | 6.1 | 0.00 | 0.39 | 0.00 | 94 | 1018.6 |
| 20260504020605 | 44 | 251 | 4.3 | 7.0 | 0.00 | 0.39 | 0.00 | 94 | 1018.6 |
| 20260504015604 | 45 | 296 | 3.5 | 5.2 | 0.00 | 0.39 | 0.00 | 93 | 1018.6 |
| 20260504014622 | 45 | 313 | 2.6 | 4.3 | 0.00 | 0.39 | 0.00 | 91 | 1018.5 |
| 20260504013604 | 45 | 255 | 2.6 | 5.2 | 0.00 | 0.39 | 0.00 | 90 | 1018.7 |
| 20260504013104 | 45 | 235 | 2.6 | 4.3 | 0.00 | 0.39 | 0.00 | 90 | 1018.7 |
| 20260504012107 | 45 | 251 | 2.6 | 4.3 | 0.00 | 0.39 | 0.00 | 91 | 1018.6 |
| 20260504011604 | 45 | 270 | 3.5 | 5.2 | 0.00 | 0.39 | 0.00 | 91 | 1018.6 |
| 20260504011104 | 44 | 270 | 3.5 | 5.2 | 0.00 | 0.39 | 0.00 | 92 | 1018.6 |
| 20260504010615 | 44 | 292 | 4.3 | 5.2 | 0.00 | 0.39 | 0.00 | 92 | 1018.6 |
| 20260504010109 | 44 | 277 | 4.3 | 4.3 | 0.00 | 0.39 | 0.00 | 93 | 1018.6 |
| 20260504005611 | 44 | 270 | 4.3 | 5.2 | 0.00 | 0.39 | 0.00 | 93 | 1018.6 |
| 20260504005105 | 44 | 270 | 2.6 | 4.3 | 0.00 | 0.39 | 0.00 | 93 | 1018.6 |
| 20260504004604 | 44 | 286 | 4.3 | 5.2 | 0.00 | 0.39 | 0.00 | 92 | 1018.6 |
| 20260504004107 | 45 | 297 | 2.6 | 5.2 | 0.00 | 0.40 | 0.00 | 90 | 1018.6 |
| 20260504003604 | 45 | 292 | 3.5 | 5.2 | 0.00 | 0.40 | 0.00 | 88 | 1018.5 |
| 20260504003105 | 46 | 262 | 4.3 | 5.2 | 0.00 | 0.40 | 0.00 | 87 | 1018.5 |
| 20260504002604 | 46 | 248 | 5.2 | 6.1 | 0.00 | 0.40 | 0.00 | 87 | 1018.5 |
| 20260504001604 | 46 | 253 | 6.1 | 7.8 | 0.00 | 0.40 | 0.00 | 88 | 1018.6 |
| 20260504001104 | 45 | 258 | 2.6 | 5.2 | 0.00 | 0.40 | 0.00 | 88 | 1018.6 |
| 20260504000604 | 46 | 259 | 4.3 | 6.1 | 0.00 | 0.40 | 0.00 | 87 | 1018.6 |
| 20260504000104 | 47 | 242 | 3.5 | 7.0 | 0.00 | 0.40 | 0.00 | 84 | 1018.5 |
| 20260503235604 | 47 | 246 | 3.5 | 6.1 | 0.00 | 0.40 | 0.00 | 83 | 1018.4 |
| 20260503235105 | 47 | 338 | 4.3 | 6.1 | 0.00 | 0.40 | 0.00 | 83 | 1018.4 |
| 20260503234605 | 47 | 42 | 2.6 | 5.2 | 0.00 | 0.40 | 0.00 | 82 | 1018.5 |
| 20260503233107 | 48 | 353 | 4.3 | 7.8 | 0.00 | 0.40 | 0.00 | 81 | 1018.5 |
| 20260503232605 | 48 | 115 | 4.3 | 8.7 | 0.00 | 0.40 | 0.00 | 81 | 1018.5 |
| 20260503231104 | 47 | 284 | 4.3 | 7.8 | 0.00 | 0.40 | 0.00 | 85 | 1018.5 |
| 20260503230105 | 45 | 121 | 3.5 | 5.2 | 0.00 | 0.40 | 0.00 | 90 | 1018.6 |
| 20260503224607 | 44 | 270 | 4.3 | 7.0 | 0.00 | 0.40 | 0.00 | 92 | 1018.7 |
| 20260503224105 | 44 | 270 | 4.3 | 5.2 | 0.00 | 0.40 | 0.00 | 92 | 1018.7 |
| 20260503223604 | 44 | 257 | 3.5 | 5.2 | 0.00 | 0.40 | 0.00 | 92 | 1018.7 |
| 20260503223104 | 44 | 258 | 3.5 | 5.2 | 0.00 | 0.40 | 0.00 | 92 | 1018.7 |
| 20260503222104 | 45 | 283 | 2.6 | 5.2 | 0.00 | 0.40 | 0.00 | 90 | 1018.7 |
| 20260503220605 | 46 | 283 | 4.3 | 7.0 | 0.00 | 0.40 | 0.00 | 87 | 1018.6 |
| 20260503220105 | 46 | 260 | 5.2 | 7.0 | 0.00 | 0.40 | 0.00 | 84 | 1018.6 |
| 20260503215107 | 47 | 242 | 5.2 | 7.8 | 0.00 | 0.40 | 0.00 | 83 | 1018.6 |
| 20260503214104 | 46 | 238 | 4.3 | 6.1 | 0.00 | 0.40 | 0.00 | 85 | 1018.6 |
| 20260503213604 | 45 | 334 | 5.2 | 7.8 | 0.00 | 0.41 | 0.00 | 88 | 1018.6 |
| 20260503213104 | 45 | 261 | 4.3 | 6.1 | 0.00 | 0.42 | 0.00 | 88 | 1018.6 |
| 20260503212604 | 45 | 265 | 4.3 | 7.0 | 0.00 | 0.42 | 0.00 | 88 | 1018.6 |
| 20260503212107 | 45 | 269 | 4.3 | 6.1 | 0.00 | 0.42 | 0.00 | 88 | 1018.7 |
| 20260503210111 | 45 | 251 | 3.5 | 5.2 | 0.00 | 0.42 | 0.00 | 88 | 1018.6 |
| 20260503205604 | 46 | 322 | 2.6 | 6.1 | 0.00 | 0.42 | 0.42 | 87 | 1018.6 |
| 20260503205107 | 46 | 300 | 4.3 | 6.1 | 0.00 | 0.42 | 0.42 | 87 | 1018.6 |
| 20260503204605 | 46 | 189 | 1.7 | 5.2 | 0.00 | 0.42 | 0.42 | 87 | 1018.7 |
| 20260503203611 | 46 | 350 | 4.3 | 5.2 | 0.00 | 0.42 | 0.42 | 86 | 1018.7 |
| 20260503203104 | 46 | 323 | 4.3 | 7.0 | 0.00 | 0.42 | 0.42 | 86 | 1018.7 |
| 20260503202604 | 46 | 262 | 5.2 | 7.8 | 0.00 | 0.42 | 0.42 | 86 | 1018.7 |
| 20260503201606 | 46 | 319 | 4.3 | 7.8 | 0.00 | 0.42 | 0.42 | 86 | 1018.6 |
| 20260503201104 | 46 | 255 | 5.2 | 7.8 | 0.00 | 0.42 | 0.42 | 86 | 1018.6 |
| 20260503195604 | 46 | 246 | 4.3 | 7.8 | 0.00 | 0.42 | 0.42 | 85 | 1018.6 |
| 20260503195107 | 47 | 131 | 3.5 | 10.4 | 0.00 | 0.42 | 0.42 | 85 | 1018.6 |
| 20260503194104 | 47 | 262 | 5.2 | 7.0 | 0.00 | 0.42 | 0.42 | 83 | 1018.6 |
| 20260503193605 | 47 | 292 | 6.1 | 10.4 | 0.00 | 0.42 | 0.42 | 83 | 1018.7 |
| 20260503193107 | 47 | 268 | 5.2 | 7.8 | 0.00 | 0.42 | 0.42 | 82 | 1018.7 |
| 20260503192604 | 47 | 239 | 6.1 | 7.0 | 0.00 | 0.42 | 0.42 | 82 | 1018.7 |
| 20260503192104 | 47 | 309 | 5.2 | 10.4 | 0.00 | 0.42 | 0.42 | 82 | 1018.6 |
| 20260503191604 | 47 | 283 | 5.2 | 7.8 | 0.00 | 0.42 | 0.42 | 82 | 1018.6 |
| 20260503191106 | 47 | 331 | 5.2 | 8.7 | 0.00 | 0.42 | 0.42 | 82 | 1018.5 |
| 20260503190605 | 47 | 323 | 6.1 | 8.7 | 0.00 | 0.42 | 0.42 | 82 | 1018.5 |
| 20260503190108 | 47 | 328 | 5.2 | 10.4 | 0.00 | 0.42 | 0.42 | 84 | 1018.3 |
| 20260503185110 | 47 | 301 | 5.2 | 6.1 | 0.00 | 0.42 | 0.42 | 84 | 1018.3 |
| 20260503184607 | 47 | 289 | 6.1 | 10.4 | 0.00 | 0.42 | 0.42 | 84 | 1018.3 |
| 20260503184104 | 47 | 271 | 4.3 | 8.7 | 0.00 | 0.42 | 0.42 | 84 | 1018.3 |
| 20260503183604 | 47 | 332 | 4.3 | 11.3 | 0.00 | 0.42 | 0.42 | 83 | 1018.0 |
| 20260503183104 | 47 | 258 | 4.3 | 7.8 | 0.00 | 0.42 | 0.42 | 83 | 1018.0 |
| 20260503182604 | 47 | 245 | 6.1 | 7.8 | 0.00 | 0.42 | 0.42 | 82 | 1018.0 |
| 20260503182104 | 47 | 326 | 4.3 | 8.7 | 0.00 | 0.42 | 0.42 | 82 | 1017.8 |
| 20260503181604 | 47 | 264 | 5.2 | 10.4 | 0.00 | 0.42 | 0.42 | 81 | 1017.8 |
| 20260503181119 | 47 | 149 | 4.3 | 7.0 | 0.00 | 0.42 | 0.42 | 82 | 1017.6 |
| 20260503180604 | 47 | 246 | 6.1 | 8.7 | 0.00 | 0.42 | 0.42 | 82 | 1017.6 |
| 20260503180112 | 48 | 18 | 5.2 | 8.7 | 0.00 | 0.42 | 0.42 | 82 | 1017.5 |
| 20260503175105 | 48 | 329 | 6.1 | 10.4 | 0.00 | 0.42 | 0.42 | 80 | 1017.5 |
| 20260503174104 | 48 | 158 | 7.0 | 11.3 | 0.00 | 0.42 | 0.42 | 81 | 1017.3 |
| 20260503173604 | 48 | 207 | 4.3 | 7.0 | 0.00 | 0.42 | 0.42 | 80 | 1017.2 |
| 20260503173104 | 48 | 262 | 4.3 | 12.2 | 0.00 | 0.42 | 0.42 | 79 | 1017.2 |
| 20260503172605 | 48 | 21 | 5.2 | 10.4 | 0.00 | 0.42 | 0.42 | 78 | 1017.2 |
| 20260503171604 | 49 | 348 | 5.2 | 10.4 | 0.00 | 0.42 | 0.42 | 74 | 1017.1 |
| 20260503171112 | 49 | 20 | 5.2 | 13.0 | 0.00 | 0.42 | 0.42 | 73 | 1016.8 |
| 20260503170611 | 49 | 282 | 7.0 | 13.9 | 0.00 | 0.42 | 0.42 | 69 | 1016.8 |
| 20260503170104 | 49 | 59 | 10.4 | 13.9 | 0.00 | 0.42 | 0.42 | 68 | 1016.6 |
| 20260503160105 | 51 | 337 | 6.1 | 10.4 | 0.00 | 0.42 | 0.42 | 66 | 1016.6 |
| 20260503150604 | 51 | 301 | 10.4 | 14.8 | 0.00 | 0.42 | 0.42 | 66 | 1016.5 |
| 20260503150105 | 51 | 109 | 7.0 | 13.9 | 0.00 | 0.42 | 0.42 | 64 | 1016.4 |
| 20260503140105 | 53 | 349 | 8.7 | 13.9 | 0.00 | 0.42 | 0.42 | 65 | 1016.5 |
| 20260503131105 | 52 | 81 | 7.8 | 15.6 | 0.00 | 0.42 | 0.42 | 71 | 1016.4 |
| 20260503130604 | 54 | 47 | 10.4 | 15.6 | 0.00 | 0.42 | 0.42 | 67 | 1016.4 |
| 20260503130104 | 54 | 16 | 8.7 | 13.9 | 0.00 | 0.42 | 0.42 | 67 | 1016.4 |
| 20260503110605 | 52 | 107 | 6.1 | 11.3 | 0.00 | 0.42 | 0.42 | 78 | 1016.8 |
| 20260503110104 | 52 | 121 | 6.1 | 13.0 | 0.00 | 0.42 | 0.42 | 78 | 1016.8 |
| 20260503090105 | 55 | 343 | 7.0 | 10.4 | 0.00 | 0.42 | 0.42 | 71 | 1016.6 |